Location: Grange Verzio
(44.5000°N, 6.9833°E)
Time: 18:49:13
(UTC+00:00)

Cosmos 2219 Rocket - Pass Details

Date: 29 September 2023
Orbit: 826 x 848 km, 71.0° (Epoch: 08 December)

Event Time Altitude Azimuth Distance (km) Brightness Sun altitude
Rises 19:05:16 0° 236° (SW) 3,355 5.9 -19.9°
Reaches altitude 10° 19:07:59 10° 247° (WSW) 2,427 5.3 -20.4°
Maximum altitude 19:12:48 29° 308° (NW) 1,469 4.1 -21.2°
Drops below altitude 10° 19:17:40 10° 8° (N) 2,447 4.7 -22.0°
Sets 19:20:26 0° 19° (NNE) 3,388 5.4 -22.5°
